Home   Weather   Santa Cruz de Tenerife   Past weeks

Flag for Spain Past Weather in Santa Cruz de Tenerife, Canary Islands, Spain — Yesterday and Last 2 Weeks

Now
63 °F

Scattered clouds.


Feels Like: 63 °F
Forecast: N/A
Wind: 3 mph from Northwest

Location: Tenerife / Los Rodeos

Current Time: Dec 6, 2016 at 6:01:55 pm

Latest Report: Dec 6, 2016 at 5:30 pm


Visibility: N/A

Pressure: 30.21 "Hg

Humidity: 88%

Dew Point: 59 °F

Location of Santa Cruz de TenerifeLocation

Past Weather in Santa Cruz de Tenerife — Graph

°F

Santa Cruz de Tenerife Temperature Yesterday

Maximum temperature yesterday: 66 °F (at 11:00 am)
Minimum temperature yesterday: 54 °F (at 6:30 am)
Average temperature yesterday: 60 °F

High & Low Weather Summary for the Past Weeks

 TemperatureHumidityPressure
High70 °F (Dec 2, 12:00 pm)100% (Nov 22, 3:00 am)30.24 "Hg (Nov 22, 3:00 am)
Low50 °F (Nov 24, 3:00 am)63% (Dec 1, 10:30 pm)29.83 "Hg (Dec 3, 5:30 am)
Average58 °F88%30.04 "Hg
* Reported Nov 21 4:00 pm — Dec 6 4:30 pm, Santa Cruz de Tenerife, Weather by CustomWeather, © 2016

Note: Actual official high and low records may vary slightly from our data, if they occured in-between our weather recording intervals... More about our weather records

Advertising

Santa Cruz de Tenerife Weather History for the Previous 24 Hours

Scroll right to see more
 ConditionsComfort  
Time TempWeatherWind HumidityBarometerVisibility
4:30 pm
Tue, Dec 6
64 °FScattered clouds.6 mph88%30.21 "HgN/A
4:00 pm64 °FScattered clouds.No wind88%30.21 "HgN/A
3:30 pm64 °FScattered clouds.6 mph88%30.21 "HgN/A
3:00 pm66 °FScattered clouds.5 mph83%30.21 "HgN/A
2:30 pm66 °FScattered clouds.7 mph88%30.21 "HgN/A
2:00 pm66 °FScattered clouds.9 mph88%30.21 "HgN/A
1:30 pm66 °FScattered clouds.2 mph83%30.21 "HgN/A
1:00 pm64 °FScattered clouds.1 mph88%30.21 "HgN/A
12:30 pm63 °FBroken clouds.6 mph94%30.21 "HgN/A
12:00 pm61 °FBroken clouds.7 mph100%30.24 "HgN/A
11:30 am61 °FBroken clouds.8 mph100%30.24 "HgN/A
11:00 am61 °FBroken clouds.10 mph100%30.24 "HgN/A
10:30 am61 °FBroken clouds.9 mph94%30.24 "HgN/A
10:00 am61 °FBroken clouds.7 mph94%30.24 "HgN/A
9:30 am61 °FBroken clouds.7 mph94%30.24 "HgN/A
9:00 am61 °FBroken clouds.6 mph94%30.24 "HgN/A
8:30 am59 °FBroken clouds.7 mph100%30.24 "HgN/A
8:00 am59 °FBroken clouds.7 mph100%30.21 "HgN/A
7:30 am59 °FPartly cloudy.3 mph100%30.21 "HgN/A
7:00 am59 °FPartly cloudy.No wind100%30.21 "Hg4 mi
6:30 am59 °FPartly cloudy.No wind100%30.21 "Hg5 mi
6:00 am59 °FPartly cloudy.1 mph100%30.21 "HgN/A
5:30 am59 °FLow clouds.3 mph100%30.21 "Hg4 mi
5:00 am61 °FLow clouds.3 mph94%30.21 "HgN/A
4:30 am59 °FLow clouds.3 mph100%30.21 "HgN/A
4:00 am59 °FLow clouds.3 mph100%30.21 "HgN/A
3:30 am59 °FPassing clouds.3 mph100%30.21 "HgN/A
3:00 am59 °FFog.5 mph100%30.21 "Hg0 mi
2:30 am59 °FLight rain. Low clouds.6 mph100%30.21 "Hg0 mi
2:00 am61 °FLow clouds.3 mph94%30.21 "Hg5 mi
1:30 am61 °FLow clouds.3 mph94%30.21 "HgN/A
1:00 am59 °FPassing clouds.3 mph94%30.21 "HgN/A
12:30 am57 °FCool.3 mph94%30.21 "HgN/A
12:00 am57 °FCool.2 mph94%30.24 "HgN/A
11:30 pm
Mon, Dec 5
57 °FCool.No wind94%30.24 "HgN/A
11:00 pm57 °FPassing clouds.2 mph94%30.24 "HgN/A
10:30 pm57 °FPassing clouds.3 mph94%30.24 "HgN/A
10:00 pm59 °FPassing clouds.6 mph94%30.24 "HgN/A
9:30 pm59 °FPassing clouds.9 mph94%30.21 "HgN/A
9:00 pm59 °FPassing clouds.9 mph94%30.21 "HgN/A
8:30 pm57 °FPassing clouds.9 mph94%30.21 "HgN/A
8:00 pm57 °FFog.5 mph94%30.21 "HgN/A
7:30 pm59 °FFog.10 mph94%30.21 "HgN/A
7:00 pm59 °FFog.12 mph94%30.18 "HgN/A
6:30 pm59 °FLight fog.10 mph94%30.18 "HgN/A
6:00 pm61 °FFog.9 mph94%30.18 "HgN/A
Weather by CustomWeather, © 2016

See weather overviewHow to use our weather pages